パンスターズ彗星

C/2015 J1 ( PanSTARRS )

English version
Home page
Updated on March 25, 2017

---------------------------------------------------------------------

・ プロフィール

発見日 2015年5月14日
発見光度 20.4等
発見者 Pan-STARRS 1 telescope (Haleakala)

・ 写真集

・ 軌道要素

Epoch 2014 July 2.0 TT = JDT 2456840.5
T 2014 June 29.79887 TT                                 MPCW
q   6.0191457            (2000.0)            P               Q
z  -0.0005252      Peri.  315.44977     -0.50663101     -0.57756548
 +/-0.0000033      Node   219.98387     -0.18526164     -0.65217655
e   1.0031615      Incl.   95.01530     -0.84202325     +0.49100292
From 54 observations 2015 May 14-2016 June 7, mean residual 0".4.

・ 光度変化

        m1 = 8.0 + 5 logΔ + 10.0 log r

---------------------------------------------------------------------

軌道要素はM.P.E.C. 2016-M09に掲載されたものです。
光度グラフはComet for Windowsで作成したものです。

---------------------------------------------------------------------

Copyright(C) Seiichi Yoshida (comet@aerith.net). All rights reserved.